Location: Bogis-Bossey
(46.3500°N, 6.1667°E)
Time: 17:11:41
(UTC+00:00)

Cosmos 1151 Rocket - Pass Details

Date: 17 August 2022
Orbit: 591 x 615 km, 82.5° (Epoch: 30 September)

Event Time Altitude Azimuth Distance (km) Brightness Sun altitude
Rises 19:08:29 0° 357° (N) 2,857 6.9 -5.1°
Reaches altitude 10° 19:10:50 10° 5° (N) 1,946 5.9 -5.5°
Maximum altitude 19:14:53 39° 75° (ENE) 894 3.6 -6.1°
Drops below altitude 10° 19:18:52 10° 146° (SE) 1,921 5.1 -6.7°
Enters shadow 19:20:12 - 151° (SSE) 2,433 5.6 -6.9°
